Orbital Elements at Epoch 2459200.5 (2020-Dec-17.0) TDB
Reference: JPL 17 (heliocentric ecliptic J2000)
Element | Value | Uncertainty (1-sigma) | Units |
e | .2523155428495029 | 4.7184e-08 | |
a | 2.299559304668246 | 5.4653e-09 | au |
q | 1.719344750396252 | 1.0733e-07 | au |
i | 2.700732301612557 | 5.397e-06 | deg |
node | 160.3807413119613 | 7.1984e-05 | deg |
peri | 163.1236645015487 | 7.2601e-05 | deg |
M | 151.5761091195869 | 9.5378e-06 | deg |
tp | 2458664.217528305307 (2019-Jun-29.71752831) | 3.303e-05 | TDB |
period | 1273.694719645905 3.49 | 4.5407e-06 1.243e-08 | d yr |
n | .2826422960284252 | 1.0076e-09 | deg/d |
Q | 2.87977385894024 | 6.8443e-09 | au |
|
| | Orbit Determination Parameters
Additional Information
|